Regional Weather Roundup
Issued by NWS

Home | Current Version | Previous Version | Graphics & Text | Print | Product List | Glossary On
Versions: 1 2 3 4 5 6 7 8 9 10 11 12 13 14 15 16 17 18 19 20 21 22 23 24 25 26 27 28 29 30 31 32 33 34 35 36 37 38 39 40 41 42 43 44 45 46 47 48 49 50
000
ASUS43 KLSX 201510
RWRMO

WEATHER SUMMARY FOR MISSOURI
NATIONAL WEATHER SERVICE SPRINGFIELD MO
900 AM CST MON FEB 20 2017

NOTE: "FAIR" INDICATES FEW OR NO CLOUDS BELOW 12,000 FEET WITH NO
       SIGNIFICANT WEATHER AND/OR OBSTRUCTIONS TO VISIBILITY.
       CURRENT SKY AND/OR WEATHER CONDITIONS ARE NOT AVAILABLE FOR
       CHILLICOTHE AND FARMINGTON.

MOZ001>031-035>038-043-044-053-054-201600-
...NORTHERN AND WESTERN MISSOURI...

CITY           SKY/WX    TMP DP  RH WIND       PRES   REMARKS
KANSAS CTY INT LGT RAIN  59  57  93 S17       29.82F
KANSAS C DTWN  LGT RAIN  61  57  87 S10G20    29.82F
LEE`S SUMMIT   LGT RAIN  59  56  89 S13       29.83F
ST JOSEPH      LGT RAIN  60  57  89 S13       29.82R FOG
CHILLICOTHE      N/A     62  56  80 S10       29.86F
KIRKSVILLE     CLOUDY    59  55  87 SE15      29.91F

$$
MOZ066>068-077>081-088>096-101>105-201600-
...SOUTHWEST MISSOURI...

CITY           SKY/WX    TMP DP  RH WIND       PRES   REMARKS
SPRINGFIELD    CLOUDY    60  55  83 SE18G28   29.93R
JOPLIN         CLOUDY    62  61  96 S12       29.89S
BRANSON        PTSUNNY   61  57  88 SE9       29.97S

$$
MOZ032>034-039>042-045>050-055>058-069>072-201600-
...CENTRAL MISSOURI...

CITY           SKY/WX    TMP DP  RH WIND       PRES   REMARKS
COLUMBIA       MOSUNNY   67  54  63 S18G24    29.93S
JEFFERSON CITY CLOUDY    67  53  61 SE14      29.94S
ROLLA          LGT RAIN  64  52  64 SE15G25   29.97S
SEDALIA        CLOUDY    66  53  63 S17       29.91R
WHITEMAN AFB   CLOUDY    61  61 100 S16       29.86S
WARRENSBURG    TSTM      59  54  82 SE8       29.86S
OSAGE BEACH    MOSUNNY   65  52  62 S13G22    29.93F

$$
MOZ051-052-059>065-201600-
...EAST CENTRAL MISSOURI...

CITY           SKY/WX    TMP DP  RH WIND       PRES   REMARKS
ST LOUIS INTL  PTSUNNY   60  51  72 SE12      30.04F
SPIRIT OF STL  MOSUNNY   61  54  77 SE5       30.02F
ST CHARLES     CLOUDY    57  54  89 E10       30.03F

$$
MOZ072>076-082>087-097>100-106>115-201600-
...SOUTH CENTRAL AND SOUTHEAST MISSOURI...

CITY           SKY/WX    TMP DP  RH WIND       PRES   REMARKS
CAPE GIRARDEAU MOSUNNY   59  51  75 SE12      30.10S
FARMINGTON     MOSUNNY   59  53  80 S9        30.08S
POPLAR BLUFF   MOSUNNY   57  52  83 E6        30.08S
WEST PLAINS    MOSUNNY   61  52  72 S9        30.04R

$$




USA.gov is the U.S. government's official web portal to all federal, state and local government web resources and services.